Vertical_Velocity
-1 -1 -3 -0 -13 -7 -1 -4 1 -2 -2 1 1 -6 -2 2 1 -6 1 3 -1 2 5 2 1 2 0 -1 2 4 3 2 2 1 0 -2 -1 -1 2 0 -0 -3 -4 -1 -2 -2 -5 -1 -1
-0 -0 0 -1 -10 -2 -4 -2 -0 -1 -1 5 -1 0 -4 2 1 -1 -2 1 2 2 5 2 2 2 6 2 -1 4 3 4 0 2 3 1 -1 -1 -1 -1 -0 1 -1 -1 -1 2 -1 -3 -5
-1 -1 -2 -4 -1 -1 -2 -1 -1 -6 3 4 -0 2 2 3 2 -2 -3 -1 1 -1 -1 2 4 4 3 4 -2 2 4 5 2 1 3 3 0 -1 1 1 1 -0 2 -0 -1 -1 -0 -3 -4
-3 -2 -3 -7 -1 -2 -1 -1 0 -1 2 1 1 -3 -0 8 5 0 2 -3 -2 1 1 3 5 5 4 5 3 2 4 4 2 3 2 2 1 2 1 1 0 -2 -1 2 1 -0 -1 -1 0
-1 -1 -3 -1 -1 -2 -1 4 6 0 1 0 3 3 -1 -3 -2 4 3 2 1 -0 1 1 3 1 7 5 3 1 3 3 3 4 3 1 2 2 -0 0 -0 1 -1 -1 -0 -1 0 -3 -1
-3 -0 -4 -0 -1 -2 -1 2 2 -0 5 1 -7 -1 4 10 6 5 9 6 5 3 5 2 -1 -1 2 7 4 1 1 1 1 1 2 -1 2 3 1 -0 -0 -1 -0 1 0 -1 1 -2 -5
-6 -3 -2 -0 -1 -1 0 1 -2 2 1 -1 5 -2 3 1 5 13 11 13 12 7 5 3 4 4 4 -1 -4 -5 -5 -1 2 2 2 1 2 3 3 2 -1 -1 -2 -1 -0 -0 -0 1 -5
-2 -5 0 -0 -1 1 -2 1 0 -1 4 5 4 0 2 -0 7 3 -1 -4 -1 1 -2 1 3 7 3 2 10 11 12 5 1 0 2 -1 -1 3 2 3 1 -0 -1 -1 1 1 -3 -1 -1
1 -7 -0 -1 -1 1 -1 -1 0 1 -5 4 5 11 11 3 3 -1 1 2 -1 -2 -0 0 -2 1 0 4 8 4 8 7 8 3 1 0 -1 -0 -1 -3 0 1 0 -0 -0 2 0 -0 -3
-5 -3 -4 -2 -1 -0 -0 -1 -1 -2 -2 -0 1 7 2 11 6 2 -2 -3 0 -0 -1 -1 -1 -1 -4 -6 2 2 3 1 8 5 -0 -1 0 2 7 4 -0 0 2 1 0 1 3 1 -2
1 -3 -1 -2 3 -1 -0 0 -0 1 0 5 0 2 0 5 -3 -1 0 -1 -2 -1 3 1 3 -2 -3 -2 -3 0 4 8 1 3 9 3 2 1 -4 2 4 -1 -3 -2 -1 -0 -2 0 -0
-1 0 0 -0 -1 0 -1 0 2 -5 7 9 1 4 7 -0 -3 -2 2 -1 -1 -1 1 2 -1 0 1 -2 -2 -8 -2 -6 5 9 5 9 6 1 1 -1 2 1 -1 -3 -1 -0 2 3 1
1 -0 -0 0 -1 1 1 2 -1 4 6 9 5 4 -2 -0 -0 1 1 6 2 1 0 -2 -2 -1 -2 0 -1 -1 -2 -6 -4 -3 8 6 6 5 0 1 -1 1 1 -4 -5 -0 2 1 2
1 0 -4 -2 -1 -1 0 4 -7 7 7 -0 2 -3 -2 -1 0 5 4 -1 0 1 -2 -2 -2 -1 -1 -2 -1 1 -0 -4 -4 -4 1 7 11 9 15 7 -2 -1 -2 5 -3 -5 1 1 3
-0 -1 -3 -1 0 -1 -1 -11 -1 6 4 -0 -0 0 1 -1 2 -4 -2 -2 -3 0 -1 -3 -2 -1 -4 -2 -1 -3 -1 2 -5 -3 -2 1 5 8 2 13 9 1 -5 2 6 -2 2 2 4
-2 -3 -2 -5 0 -0 -3 2 2 1 2 -1 1 1 1 0 -1 -1 -1 -1 -2 -1 -2 1 -0 -3 -3 -4 -4 -1 -1 -2 2 1 -1 1 4 1 10 4 -3 8 -0 -1 6 5 2 1 1
-1 -1 0 -5 1 -1 -7 2 3 2 1 -0 -0 -1 -2 -1 -2 -2 -2 -3 -3 -4 -5 -5 -3 -2 -3 -2 -3 -6 -3 -1 -1 0 3 3 0 5 5 9 -10 16 9 -2 5 5 -1 4 1
-2 0 -0 -0 -5 -4 -1 2 1 1 -2 1 -0 -1 -0 -0 1 3 -0 -3 -4 -2 0 1 -1 -3 -3 -1 -1 -0 -5 -2 -2 -0 1 3 4 2 8 3 15 -4 11 -1 2 1 4 2 1
0 0 -0 -1 -3 -6 0 0 1 1 -3 -2 0 3 0 -3 -0 3 7 8 5 -1 -3 -7 -8 -9 -12 -12 -12 -4 -4 -10 -7 0 2 1 4 5 7 7 8 6 6 8 6 8 -3 -1 7
1 -0 -2 -2 -1 -8 0 2 1 0 2 1 1 -1 0 2 2 0 -4 -5 -4 -3 -1 -2 -6 -2 -4 -3 -6 -3 -4 -4 -1 -10 -2 -2 2 3 4 9 14 2 5 -8 13 -3 3 7 10
-0 -2 -0 -3 -0 -0 -3 0 2 2 0 -0 -2 0 1 0 -4 -4 -4 -3 -2 -4 -8 -7 -6 -3 2 3 -3 -5 -3 1 -10 -1 -9 -2 0 3 5 5 1 6 27 39 -54 32 1 -4 3
1 -2 -1 0 -2 -3 -3 -5 1 1 1 -0 0 1 -0 -2 -3 -4 -6 -5 -5 -0 4 2 1 3 -2 -3 -7 -4 0 -5 -3 -7 -2 -11 2 -4 4 6 4 -5 9 22 28 -14 -10 21 -8
-10 -1 -2 -1 -0 -0 -0 -1 1 1 2 0 0 -1 -1 -2 -2 -4 -6 -7 -4 -6 -7 -5 -3 -8 -6 -4 -0 -4 -3 -1 -1 -4 -5 -3 -8 2 -2 2 8 -2 -5 -4 8 22 -36 6 20
-2 -1 -2 -1 -2 -1 -4 -4 -3 -1 -2 0 0 0 -1 -2 -1 -2 -2 1 -0 -3 -4 -3 -4 -1 -3 -0 1 -1 -0 -5 -3 -5 -6 -5 -7 -6 3 3 4 6 -4 1 -0 -1 -75 47 33
-2 -3 -2 -3 -2 -7 -1 3 -1 0 0 -1 1 -0 1 1 -5 -3 -4 -5 -4 -3 -2 -7 -3 1 -3 5 3 -3 1 -1 -3 1 -3 -5 -5 -9 -4 4 0 1 6 -2 7 -8 -3 -36 -4
-2 -6 -6 -4 -2 -3 -1 -2 -1 -1 -1 1 2 2 -1 -1 -1 -1 -3 -4 -2 0 -3 -3 -5 3 -6 5 2 2 3 -2 -3 5 1 2 3 -2 -8 -5 1 -1 1 11 5 -2 -7 -2 -10
-4 1 -8 -3 -0 -2 -2 2 4 2 1 1 0 -2 -1 -1 -3 -3 1 1 -3 -1 -4 -3 -6 6 -4 3 1 0 2 1 5 2 3 6 1 -1 -6 -1 -6 -1 2 3 3 -0 1 -9 -3
-10 -6 -4 -1 -0 0 -1 -1 -3 3 -0 0 -1 -1 -1 1 1 -1 -1 -1 -0 -3 -4 -3 -3 4 -3 3 6 1 3 0 -0 4 2 4 7 2 3 -4 -6 -6 2 4 9 3 -5 2 -14
2 2 -1 -7 -3 -3 -1 -8 -3 -2 -1 -1 -1 -1 -1 -1 -2 -1 1 1 -0 -1 -2 -4 -2 1 -4 -0 -5 -5 -5 -3 2 1 -0 2 11 1 -2 4 -8 -8 4 4 0 -1 -5 -3 -9
-2 -2 -3 -4 -0 0 -4 -12 0 -1 -1 -2 -0 -1 -0 -0 0 0 -1 -0 -2 -0 -2 -3 -2 2 -5 3 -7 1 0 0 -5 3 -6 8 1 -3 -8 7 3 -5 8 6 11 9 -4 9 13
Height
1514 1513 1512 1512 1524 1527 1530 1519 1510 1506 1501 1499 1496 1497 1500 1504 1508 1521 1509 1508 1507 1505 1506 1508 1510 1512 1513 1515 1516 1515 1515 1516 1516 1517 1517 1517 1518 1520 1520 1520 1521 1522 1523 1524 1524 1525 1526 1527 1527
1514 1513 1513 1512 1533 1541 1530 1518 1511 1507 1503 1502 1500 1501 1501 1508 1509 1510 1510 1508 1507 1507 1509 1510 1511 1512 1514 1515 1516 1517 1517 1517 1517 1519 1519 1518 1519 1521 1521 1522 1522 1523 1523 1524 1525 1526 1526 1527 1527
1514 1514 1514 1521 1539 1540 1535 1514 1511 1502 1499 1502 1502 1504 1506 1512 1513 1514 1511 1510 1510 1510 1510 1511 1513 1514 1514 1515 1517 1517 1518 1518 1518 1520 1521 1520 1520 1522 1523 1523 1523 1524 1524 1524 1525 1526 1527 1527 1527
1514 1515 1518 1529 1530 1524 1522 1513 1504 1501 1501 1501 1503 1508 1513 1514 1515 1514 1512 1512 1512 1512 1513 1513 1515 1516 1516 1517 1517 1518 1519 1519 1520 1520 1521 1521 1522 1523 1524 1524 1524 1524 1525 1526 1525 1526 1527 1527 1527
1515 1515 1528 1534 1530 1524 1517 1512 1505 1506 1507 1506 1504 1517 1516 1517 1516 1516 1514 1513 1514 1514 1515 1516 1516 1516 1516 1517 1517 1518 1519 1520 1521 1521 1522 1522 1523 1524 1524 1524 1524 1525 1525 1525 1526 1527 1527 1527 1528
1516 1518 1535 1537 1531 1522 1518 1514 1509 1512 1513 1513 1511 1515 1521 1520 1519 1517 1517 1515 1516 1516 1517 1517 1517 1517 1516 1517 1518 1519 1520 1520 1521 1521 1521 1522 1523 1523 1524 1524 1525 1525 1525 1525 1525 1526 1527 1527 1528
1517 1525 1532 1532 1528 1522 1520 1517 1517 1515 1516 1515 1515 1519 1525 1522 1522 1521 1520 1520 1519 1518 1518 1518 1518 1518 1517 1517 1518 1519 1518 1518 1519 1519 1520 1521 1522 1523 1523 1523 1523 1524 1525 1525 1526 1526 1527 1527 1528
1516 1521 1527 1528 1529 1526 1521 1519 1518 1516 1517 1518 1518 1523 1526 1526 1522 1519 1518 1516 1515 1513 1512 1513 1514 1516 1517 1516 1517 1517 1518 1517 1518 1518 1519 1520 1521 1522 1522 1523 1523 1523 1524 1525 1525 1525 1526 1527 1528
1517 1530 1537 1527 1526 1522 1521 1520 1519 1518 1518 1519 1522 1525 1529 1525 1523 1520 1518 1516 1515 1515 1514 1513 1512 1511 1512 1513 1515 1516 1516 1517 1517 1516 1516 1517 1517 1518 1519 1520 1522 1522 1523 1523 1524 1524 1525 1525 1526
1517 1531 1528 1519 1519 1520 1520 1520 1519 1518 1520 1520 1522 1526 1526 1524 1520 1517 1516 1516 1516 1515 1514 1514 1513 1513 1513 1512 1511 1512 1514 1514 1514 1515 1515 1515 1515 1516 1516 1516 1518 1520 1521 1521 1522 1523 1523 1524 1524
1518 1525 1519 1516 1518 1518 1519 1518 1519 1516 1519 1524 1524 1526 1525 1522 1519 1518 1518 1517 1516 1516 1516 1514 1513 1513 1512 1511 1510 1510 1511 1512 1512 1512 1512 1511 1511 1511 1512 1514 1514 1515 1517 1518 1519 1520 1520 1522 1522
1520 1515 1516 1517 1517 1517 1518 1518 1518 1521 1532 1526 1523 1523 1523 1518 1519 1520 1519 1518 1516 1515 1514 1513 1512 1512 1512 1511 1510 1509 1508 1507 1507 1509 1510 1509 1507 1507 1507 1508 1510 1511 1512 1514 1516 1517 1517 1518 1519
1520 1516 1515 1516 1514 1513 1516 1519 1521 1531 1532 1526 1522 1521 1520 1521 1521 1522 1520 1518 1515 1513 1512 1511 1510 1510 1509 1509 1509 1508 1506 1505 1503 1502 1503 1504 1504 1504 1503 1503 1505 1506 1507 1508 1511 1513 1514 1515 1516
1519 1517 1515 1511 1511 1510 1512 1518 1515 1534 1532 1524 1521 1521 1523 1523 1521 1520 1518 1515 1514 1512 1510 1509 1508 1506 1505 1504 1504 1504 1502 1501 1499 1497 1496 1497 1498 1498 1499 1499 1499 1500 1501 1503 1504 1508 1510 1511 1512
1519 1519 1513 1508 1506 1505 1507 1527 1535 1536 1533 1523 1522 1524 1524 1524 1521 1518 1518 1515 1513 1511 1508 1505 1503 1503 1501 1499 1497 1496 1496 1494 1494 1491 1490 1489 1490 1492 1493 1495 1494 1493 1494 1498 1498 1500 1504 1506 1508
1522 1520 1525 1509 1506 1505 1507 1539 1537 1536 1533 1528 1527 1526 1525 1524 1522 1521 1519 1516 1513 1510 1507 1505 1501 1496 1494 1493 1490 1487 1485 1485 1484 1483 1482 1482 1482 1482 1483 1487 1489 1488 1486 1491 1492 1493 1497 1499 1501
1525 1531 1525 1513 1506 1506 1511 1536 1538 1536 1533 1531 1531 1529 1528 1526 1524 1522 1519 1516 1512 1509 1505 1502 1498 1493 1488 1486 1481 1479 1477 1474 1473 1473 1473 1474 1474 1474 1477 1477 1479 1481 1479 1483 1487 1488 1492 1494 1494
1527 1526 1523 1520 1512 1511 1526 1538 1537 1535 1533 1533 1533 1531 1529 1526 1524 1521 1518 1515 1511 1506 1502 1499 1494 1490 1485 1477 1472 1469 1467 1466 1464 1463 1464 1465 1464 1465 1467 1469 1468 1470 1471 1473 1478 1483 1484 1489 1490
1518 1520 1521 1516 1512 1518 1530 1538 1539 1537 1536 1536 1535 1531 1527 1525 1524 1521 1516 1512 1509 1505 1501 1495 1491 1486 1481 1476 1468 1461 1455 1453 1454 1453 1454 1455 1455 1457 1457 1458 1459 1463 1462 1462 1468 1475 1478 1483 1484
1518 1520 1521 1516 1511 1518 1535 1541 1539 1538 1538 1536 1534 1532 1528 1521 1516 1515 1513 1511 1506 1502 1499 1494 1490 1485 1479 1472 1467 1462 1455 1450 1446 1443 1444 1443 1445 1445 1446 1448 1451 1453 1450 1447 1455 1463 1469 1472 1473
1516 1518 1518 1517 1514 1518 1529 1540 1537 1537 1538 1537 1535 1534 1529 1524 1520 1517 1513 1510 1507 1503 1498 1493 1488 1482 1476 1470 1463 1457 1453 1447 1441 1437 1433 1434 1434 1434 1435 1436 1438 1441 1439 1429 1436 1449 1454 1459 1463
1517 1508 1509 1513 1519 1529 1518 1532 1533 1532 1536 1538 1536 1531 1528 1526 1524 1521 1515 1511 1507 1503 1498 1493 1487 1480 1474 1468 1462 1456 1451 1444 1440 1435 1429 1425 1425 1424 1425 1425 1428 1430 1432 1432 1425 1432 1437 1450 1453
1508 1506 1509 1511 1519 1521 1519 1529 1531 1532 1532 1535 1535 1532 1531 1529 1525 1523 1519 1514 1509 1504 1499 1493 1486 1480 1475 1469 1462 1455 1450 1445 1437 1431 1425 1420 1417 1416 1414 1416 1418 1421 1423 1425 1422 1416 1427 1436 1446
1499 1506 1514 1517 1524 1542 1515 1522 1533 1535 1531 1532 1532 1532 1531 1529 1527 1524 1520 1515 1509 1505 1500 1494 1487 1482 1476 1469 1461 1455 1449 1442 1434 1427 1421 1416 1411 1408 1407 1407 1408 1411 1413 1416 1419 1425 1417 1416 1435
1501 1511 1531 1532 1538 1521 1506 1515 1525 1534 1533 1532 1531 1531 1531 1528 1527 1525 1519 1514 1509 1504 1498 1494 1488 1480 1474 1466 1458 1453 1447 1439 1431 1424 1418 1413 1409 1404 1399 1397 1398 1400 1403 1407 1410 1413 1414 1419 1420
1504 1505 1514 1511 1521 1517 1508 1514 1525 1531 1531 1531 1530 1530 1529 1528 1527 1523 1518 1514 1510 1503 1498 1493 1486 1479 1472 1465 1457 1451 1444 1435 1429 1422 1416 1411 1405 1400 1395 1391 1389 1390 1391 1396 1400 1403 1405 1407 1411
1499 1504 1498 1507 1513 1521 1520 1526 1528 1530 1529 1529 1529 1528 1527 1527 1526 1523 1518 1513 1508 1501 1497 1492 1486 1480 1473 1465 1457 1449 1441 1433 1426 1420 1415 1408 1401 1395 1389 1386 1382 1380 1382 1385 1390 1392 1393 1395 1396
1484 1489 1502 1508 1510 1510 1518 1520 1523 1527 1527 1526 1527 1527 1528 1528 1524 1521 1517 1512 1507 1501 1498 1494 1488 1480 1472 1466 1457 1449 1441 1432 1426 1419 1411 1403 1397 1389 1382 1380 1377 1373 1373 1375 1380 1382 1385 1384 1387
1485 1489 1494 1496 1507 1508 1517 1523 1519 1520 1524 1525 1528 1528 1527 1526 1524 1522 1517 1511 1506 1502 1498 1493 1487 1478 1473 1466 1457 1451 1441 1434 1427 1420 1412 1403 1394 1385 1378 1374 1372 1368 1366 1366 1367 1368 1371 1374 1377
1474 1481 1486 1496 1502 1510 1523 1528 1516 1519 1523 1524 1527 1527 1526 1526 1524 1520 1515 1509 1504 1501 1497 1492 1486 1480 1474 1467 1460 1453 1445 1437 1429 1421 1413 1406 1395 1388 1380 1370 1366 1364 1362 1360 1358 1358 1359 1363 1364